{"data":{"norad_id":48380,"intl_designator":"2021-038AD","name":"STARLINK-2614","alt_names":[],"object_type":"PAYLOAD","status":"ACTIVE","operator":null,"country":"US","launch_date":"2021-05-04","launch_site_code":"AFETR","launch_vehicle":null,"mission":null,"orbit_class":"UNKNOWN","rcs_meters":null,"size_class":null,"mass_kg":null,"dimensions":null,"purposes":["comms"],"wikipedia_slug":null,"has_3d_model":false,"image_url":null,"decayed_at":null,"tle_current":{"epoch":"2026-05-24T23:40:27.488064Z","epoch_age_seconds":79811,"freshness":"FRESH","line1":"1 48380U 21038AD  26144.98642926  .00005095  00000+0  17575-3 0  9996","line2":"2 48380  53.1601 350.7711 0001122  84.7141 275.3989 15.31714988278946","mean_motion":15.31714988,"eccentricity":0.0001122,"inclination_deg":53.1601,"raan_deg":350.7711,"arg_perigee_deg":84.7141,"mean_anomaly_deg":275.3989,"bstar":0.00017575,"rev_number":27894,"period_min":94.012268031682,"perigee_km":469.9268781559,"apogee_km":471.46375612786,"semimajor_km":6848.8323171419,"source":"CELESTRAK","updated_at":"2026-05-25T13:38:16.689531Z"}}}